SCP
0 0 0 0 0 0 0 0 0 0 0 0 0 0 0 0 0 0 0 0 0 0 0 0 0 0 0 0 0 0 0 0 0 0 0 0 0 0 0 0 0 0 0 0
0 0 0 0 0 0 0 0 0 0 0 0 0 0 0 0 0 0 0 0 0 0 0 0 0 0 0 0 0 0 0 0 0 0 0 0 0 0 0 0 0 0 0 0
0 0 0 0 0 0 0 0 0 0 0 0 0 -0 0 0 0 0 0 0 0 0 0 0 0 0 0 0 0 0 0 0 0 0 0 0 0 0 0 0 0 0 0 0
0 0 0 0 0 0 0 0 0 0 0 0 0 -0 0 0 0 0 0 0 0 0 0 0 0 0 0 0 0 0 0 0 0 0 0 0 0 0 0 0 0 0 0 0
0 0 0 0 0 0 0 0 0 0 0 0 0 0 -0 -0 0 0 0 0 0 0 0 0 0 0 0 0 0 0 0 0 0 0 0 0 0 0 0 0 0 0 0 0
0 0 0 0 0 0 0 0 0 0 0 0 0 0 -0 0 0 0 0 0 0 0 0 0 0 0 0 0 0 0 0 0 0 0 0 0 0 0 0 0 0 0 0 0
0 0 0 0 0 0 0 0 0 0 0 0 0 0 0 0 0 0 0 0 0 0 0 0 0 0 0 0 0 0 0 0 0 0 0 0 0 0 0 0 0 0 0 0
0 0 0 0 0 0 0 0 0 0 0 0 0 0 0 0 0 0 0 0 0 0 0 0 0 0 0 0 0 0 0 0 0 0 0 0 0 0 0 0 0 0 0 0
0 0 0 0 0 0 0 0 0 0 0 0 0 0 0 0 0 0 0 0 0 0 0 0 0 0 0 0 0 0 0 0 0 0 0 0 0 0 0 0 0 0 0 0
0 0 0 0 0 0 0 0 0 0 0 0 0 0 0 0 0 -0 0 0 0 0 0 0 0 0 0 0 0 0 0 0 0 0 0 0 0 0 0 0 0 0 0 0
0 0 0 0 0 0 0 0 0 0 0 0 0 0 -0 0 0 0 0 0 0 0 0 0 0 0 0 0 0 0 0 0 0 0 0 0 0 0 0 0 0 0 0 0
0 0 0 0 0 0 0 0 0 0 0 0 0 0 0 0 0 0 0 -0 -0 -0 0 0 0 0 0 0 0 0 0 0 0 0 0 0 0 0 0 0 0 0 0 0
0 0 0 0 0 0 0 0 0 0 0 0 0 0 0 0 0 0 0 0 0 0 0 0 0 0 0 0 0 0 0 0 0 0 0 0 0 0 0 0 0 0 0 0
0 0 0 0 0 0 0 0 0 0 0 0 0 0 0 0 0 0 0 0 0 0 0 0 0 0 0 0 0 0 0 0 0 0 0 0 0 0 0 0 0 0 0 0
0 0 0 0 0 0 0 0 0 0 0 0 0 0 0 0 0 0 0 0 0 0 0 0 0 0 0 0 0 0 0 0 0 0 0 0 0 0 0 0 0 0 0 0
0 0 0 0 0 0 0 0 0 0 0 0 0 0 0 0 0 0 0 0 0 0 0 0 0 0 0 0 0 0 0 0 0 0 0 0 0 0 0 0 0 0 0 0
0 0 0 0 0 0 0 0 0 0 0 0 0 0 0 0 0 0 0 0 0 0 0 0 0 0 0 0 0 0 0 0 0 0 0 0 0 0 0 0 0 0 0 0
0 0 0 0 0 0 0 0 0 0 0 0 0 0 0 0 0 0 0 0 0 0 0 0 0 0 0 0 0 0 0 0 0 0 0 0 0 0 0 0 0 0 0 0
0 0 0 0 0 0 0 0 0 0 0 0 0 0 0 0 0 0 0 0 0 0 0 0 0 0 0 0 0 0 0 0 0 0 0 0 0 0 0 0 0 0 0 0
-0 0 0 0 0 0 0 0 0 0 0 0 0 0 0 0 0 0 0 0 0 0 0 0 0 0 0 0 0 0 0 0 0 0 0 0 0 0 0 0 0 0 0 0
-0 0 0 0 0 0 0 0 0 0 0 0 0 0 0 0 0 0 0 0 0 0 0 0 0 0 0 0 0 0 0 0 0 0 0 0 0 0 0 0 0 0 0 0
0 0 0 0 0 -0 -0 0 0 0 0 0 0 0 0 0 0 0 0 0 0 0 0 0 0 0 0 0 0 0 0 0 0 0 0 0 0 0 0 0 0 0 -0 -0
0 0 0 0 -0 0 0 0 0 0 0 0 0 0 0 0 0 0 0 0 0 0 0 0 0 0 0 0 0 0 0 0 0 0 0 0 0 0 0 0 0 -0 -0 0
0 0 0 0 -0 0 0 0 0 0 0 0 0 0 0 0 0 0 0 0 0 0 0 0 0 0 0 0 0 0 0 0 0 0 0 0 0 -0 -0 0 0 0 0 0
0 0 0 0 0 0 0 0 0 0 0 0 0 0 0 0 0 0 0 0 0 0 0 0 0 0 0 0 0 0 0 0 0 0 0 0 0 0 0 0 0 0 0 0
0 0 0 0 0 0 0 0 0 0 0 0 0 0 0 0 0 0 0 0 0 0 0 0 0 0 0 0 0 0 0 0 0 0 0 -0 -0 -0 0 0 0 0 0 0
Wind_Speed_500mb
14 8 24 19 10 3 9 7 9 6 7 6 15 19 31 39 36 44 44 50 52 62 62 57 57 56 55 59 60 56 54 53 55 52 51 51 51 47 46 42 43 41 42 44
6 33 12 10 7 6 5 7 7 7 6 3 13 21 23 25 26 55 67 70 63 59 58 57 54 56 54 53 59 60 57 58 59 58 53 53 53 51 48 42 37 36 35 37
24 8 29 16 9 16 9 11 7 6 8 2 12 27 20 28 39 58 66 66 65 69 74 74 71 61 55 51 50 48 44 48 46 52 56 58 61 57 52 41 27 21 23 26
22 23 17 11 27 17 22 13 10 6 3 10 2 18 13 11 19 16 49 65 75 78 79 79 76 69 62 57 48 51 45 41 42 48 55 61 62 60 52 45 39 36 35 35
14 21 17 23 16 17 9 13 15 8 6 6 8 9 10 2 17 11 32 58 62 73 82 80 78 74 71 69 66 60 54 49 41 39 42 49 55 56 59 56 52 48 46 48
14 8 20 16 10 20 12 12 11 7 6 10 22 14 9 11 17 14 25 36 42 54 63 59 54 52 49 53 54 48 42 39 42 45 45 48 51 51 52 52 51 50 52 53
10 19 6 14 13 6 14 15 5 1 7 16 2 14 35 8 16 13 20 37 29 28 27 42 47 41 47 38 35 47 36 32 29 27 28 32 36 40 41 42 45 47 48 49
21 15 24 12 15 12 33 22 12 16 10 7 4 18 13 11 28 39 52 52 44 38 36 32 35 33 32 34 41 36 32 27 24 25 30 34 32 30 31 33 38 40 41 43
21 22 5 13 13 21 9 26 12 10 4 4 10 14 17 20 19 27 38 35 49 36 29 21 24 31 39 43 39 32 29 29 28 30 31 29 26 27 29 31 34 37 40 42
8 5 11 12 13 25 22 19 13 3 7 10 10 11 16 7 17 17 20 34 34 28 26 19 29 37 40 38 36 34 30 28 30 32 29 29 29 29 27 28 30 33 35 36
4 5 4 16 28 30 16 18 9 9 11 9 4 13 15 26 17 18 17 26 25 25 28 33 38 40 40 39 37 34 32 33 36 36 35 33 28 27 27 27 26 27 29 31
26 5 10 29 2 24 37 29 34 18 33 19 3 17 5 11 12 17 30 29 26 25 29 35 42 47 48 45 42 40 40 38 38 36 34 30 27 25 24 25 27 29 31 33
26 15 16 7 5 2 26 40 40 45 4 35 15 22 5 11 11 23 27 28 29 29 32 38 47 51 50 50 49 48 45 44 42 40 36 32 29 28 28 29 30 30 30 32
42 21 18 33 11 14 26 40 44 43 32 41 34 54 20 5 13 19 28 27 30 31 34 43 51 59 60 60 59 56 53 51 47 44 41 37 34 34 33 34 33 30 29 31
26 29 36 40 14 1 19 46 47 43 52 36 54 51 50 34 21 32 30 38 38 36 33 33 52 69 74 70 65 62 59 57 54 51 48 44 44 41 40 37 34 32 33 35
25 33 24 30 31 38 24 32 41 46 48 48 52 45 41 53 50 50 63 66 57 59 55 49 47 49 63 74 75 72 70 67 64 60 56 50 51 48 45 41 38 37 39 42
36 23 28 45 35 36 34 42 33 35 40 40 48 60 63 37 19 38 51 45 53 59 64 70 72 75 71 74 79 82 77 75 71 66 58 57 56 53 46 45 42 44 46 52
6 15 25 30 33 50 11 26 47 56 60 55 54 43 37 50 76 73 43 52 65 66 69 76 80 80 81 84 82 81 88 81 76 72 68 66 60 54 50 49 51 51 56 63
17 15 19 28 37 36 12 9 21 29 48 34 17 31 58 80 47 37 60 53 58 65 71 74 76 79 78 75 72 67 68 67 76 79 75 66 62 58 55 60 58 59 65 73
25 29 21 13 24 53 48 41 41 22 31 32 52 51 53 72 17 39 44 32 47 56 63 66 66 66 62 61 62 60 57 51 62 70 66 64 62 64 67 63 64 68 73 82
11 14 32 25 28 17 11 7 28 30 19 58 64 64 65 34 49 60 32 27 22 27 32 37 39 35 30 29 35 38 43 45 51 61 65 66 65 63 59 64 70 76 83 91
15 12 11 16 15 19 20 8 22 14 17 20 27 69 67 71 46 28 18 26 26 25 22 18 14 14 14 12 14 20 26 32 39 44 45 44 44 52 62 70 78 84 92 101
10 23 20 16 6 15 30 23 22 10 15 14 30 44 43 47 34 36 39 38 34 29 23 18 16 14 12 11 9 10 17 23 25 29 36 44 52 61 69 79 87 95 100 106
9 6 8 6 18 23 28 38 24 21 19 14 16 23 38 45 43 44 36 31 27 21 17 15 11 7 4 3 7 13 21 29 37 44 50 58 67 75 82 89 96 103 107 110
9 9 10 8 2 7 28 33 30 23 21 25 28 31 41 47 42 35 29 23 15 12 8 2 3 8 13 15 21 28 36 43 49 55 61 68 75 82 88 92 96 101 104 103
10 10 8 15 7 4 6 27 26 28 29 30 36 29 38 29 35 26 21 14 6 4 6 8 14 19 24 26 29 35 41 47 54 59 64 69 75 81 87 95 103 100 105 105
Wind_Direction_500mb
175 179 211 202 190 118 147 176 182 246 237 195 239 249 261 256 250 254 251 251 251 252 256 253 251 252 255 252 251 251 253 252 248 249 252 256 260 264 270 276 281 284 283 282
178 229 197 158 189 204 172 182 215 288 297 227 295 266 259 250 233 241 249 249 251 253 254 255 253 251 254 254 254 248 253 258 250 249 253 256 261 265 270 275 281 286 287 286
204 172 175 170 175 203 203 192 161 212 339 293 325 275 245 257 236 248 251 255 256 253 257 258 252 251 252 253 254 247 252 254 246 246 251 253 255 259 265 274 281 286 284 284
234 233 179 185 217 190 236 162 159 175 77 247 41 281 256 245 257 228 247 248 251 251 250 254 257 255 254 253 256 252 247 248 251 249 250 253 257 260 264 266 268 272 275 278
213 173 167 199 198 169 233 161 175 161 152 349 216 284 266 245 269 259 242 246 252 254 254 255 258 261 264 266 262 250 246 247 242 246 251 252 255 258 261 263 264 265 271 278
219 221 191 197 145 176 142 88 51 60 102 270 235 193 213 205 216 240 243 258 262 265 261 263 265 260 251 258 255 230 230 239 253 255 255 252 251 253 255 258 262 265 271 279
170 213 206 152 135 127 174 129 125 278 204 240 325 197 250 256 260 232 259 280 281 270 279 269 255 251 247 244 229 221 232 232 235 242 250 255 254 249 248 249 255 264 271 275
205 217 182 179 177 182 193 179 163 198 204 252 195 232 247 244 275 267 265 267 271 275 290 290 236 241 222 205 195 199 204 215 226 247 253 251 247 248 251 254 261 264 269 277
199 229 52 181 159 152 173 215 177 106 8 43 225 292 291 252 266 261 264 268 263 272 284 270 211 196 188 189 193 201 210 223 236 244 242 242 243 243 246 252 260 270 277 284
225 265 184 180 159 205 182 153 186 173 183 253 261 272 237 308 244 259 258 253 258 250 261 233 198 189 188 191 194 200 208 224 232 230 233 235 236 242 251 262 270 275 279 283
196 78 285 146 202 185 181 197 205 173 164 195 276 259 216 225 205 227 268 272 270 256 243 222 207 198 197 200 204 211 220 225 221 222 224 229 238 247 254 260 267 274 279 283
203 185 209 211 146 216 207 201 202 209 214 231 305 261 326 213 200 235 263 259 258 257 250 223 209 202 204 208 213 219 222 221 224 227 232 237 241 248 257 265 271 275 279 283
181 206 226 199 236 357 210 211 206 218 71 215 207 257 272 202 210 217 230 254 266 269 254 224 213 212 216 222 223 225 225 228 231 232 235 238 244 253 257 261 263 266 273 280
176 204 219 231 224 148 204 211 213 209 221 234 222 249 220 160 227 237 247 259 268 270 271 243 229 228 230 232 229 229 230 230 231 236 237 240 247 249 252 256 260 264 270 276
215 221 223 233 243 259 232 213 211 214 221 219 235 242 252 237 232 234 257 268 261 264 262 257 246 248 239 235 233 235 238 237 237 238 240 245 248 245 248 251 253 259 271 285
238 247 239 243 237 243 232 234 225 221 224 233 244 249 256 252 236 239 247 255 255 256 258 267 272 261 248 243 241 242 243 242 240 241 243 243 245 243 244 245 251 261 273 285
235 248 238 248 236 242 247 229 224 240 235 232 238 241 251 256 243 234 243 245 251 254 257 259 263 269 263 257 253 250 252 247 243 243 243 245 245 244 244 248 257 269 278 285
318 263 238 252 253 249 219 206 210 229 237 239 242 252 252 253 255 259 254 250 255 256 257 258 260 263 266 267 265 265 259 253 248 246 245 243 242 244 245 252 261 270 279 286
194 264 259 237 242 256 321 215 176 201 234 228 234 246 252 257 253 263 258 251 256 263 266 266 266 270 270 267 268 268 270 265 252 247 242 240 241 243 250 257 266 275 283 290
196 225 242 270 236 239 237 217 208 193 239 228 222 236 242 251 239 256 273 258 251 252 256 259 261 264 263 264 263 262 262 258 250 241 235 234 239 244 251 262 273 282 289 293
183 209 224 236 255 288 341 301 164 194 225 233 231 229 235 235 233 261 257 227 230 240 249 250 248 250 257 257 253 242 236 229 225 225 226 230 236 246 259 270 279 286 291 293
178 204 201 226 228 272 179 193 181 200 209 251 230 228 228 235 221 219 205 174 177 181 173 178 180 171 179 190 204 203 209 207 214 222 229 241 252 263 271 278 284 288 291 293
227 205 250 190 235 218 210 237 214 203 283 246 214 218 228 214 186 182 168 166 161 159 152 149 148 146 143 143 156 190 216 232 245 258 263 267 271 277 282 286 289 291 293 294
260 177 203 133 217 226 223 223 226 226 224 253 242 209 183 170 164 156 155 151 151 146 140 143 152 172 205 280 295 282 279 280 282 283 284 286 287 287 288 289 291 293 294 296
196 159 204 266 281 349 264 251 251 234 209 178 182 169 149 152 142 143 138 137 142 140 129 84 348 314 310 312 308 300 296 294 293 293 293 293 293 294 294 293 294 294 293 295
186 199 198 259 65 319 32 202 196 175 163 156 159 136 133 140 136 137 135 130 113 65 38 347 336 328 324 325 319 310 306 304 303 303 302 303 303 302 302 301 298 295 298 300
Wind_Speed_850mb
14 8 24 19 10 3 9 7 9 6 7 6 15 19 31 39 36 44 44 50 52 62 62 57 57 56 55 59 60 56 54 53 55 52 51 51 51 47 46 42 43 41 42 44
6 33 12 10 7 6 5 7 7 7 6 3 13 21 23 25 26 55 67 70 63 59 58 57 54 56 54 53 59 60 57 58 59 58 53 53 53 51 48 42 37 36 35 37
24 8 29 16 9 16 9 11 7 6 8 2 12 27 20 28 39 58 66 66 65 69 74 74 71 61 55 51 50 48 44 48 46 52 56 58 61 57 52 41 27 21 23 26
22 23 17 11 27 17 22 13 10 6 3 10 2 18 13 11 19 16 49 65 75 78 79 79 76 69 62 57 48 51 45 41 42 48 55 61 62 60 52 45 39 36 35 35
14 21 17 23 16 17 9 13 15 8 6 6 8 9 10 2 17 11 32 58 62 73 82 80 78 74 71 69 66 60 54 49 41 39 42 49 55 56 59 56 52 48 46 48
14 8 20 16 10 20 12 12 11 7 6 10 22 14 9 11 17 14 25 36 42 54 63 59 54 52 49 53 54 48 42 39 42 45 45 48 51 51 52 52 51 50 52 53
10 19 6 14 13 6 14 15 5 1 7 16 2 14 35 8 16 13 20 37 29 28 27 42 47 41 47 38 35 47 36 32 29 27 28 32 36 40 41 42 45 47 48 49
21 15 24 12 15 12 33 22 12 16 10 7 4 18 13 11 28 39 52 52 44 38 36 32 35 33 32 34 41 36 32 27 24 25 30 34 32 30 31 33 38 40 41 43
21 22 5 13 13 21 9 26 12 10 4 4 10 14 17 20 19 27 38 35 49 36 29 21 24 31 39 43 39 32 29 29 28 30 31 29 26 27 29 31 34 37 40 42
8 5 11 12 13 25 22 19 13 3 7 10 10 11 16 7 17 17 20 34 34 28 26 19 29 37 40 38 36 34 30 28 30 32 29 29 29 29 27 28 30 33 35 36
4 5 4 16 28 30 16 18 9 9 11 9 4 13 15 26 17 18 17 26 25 25 28 33 38 40 40 39 37 34 32 33 36 36 35 33 28 27 27 27 26 27 29 31
26 5 10 29 2 24 37 29 34 18 33 19 3 17 5 11 12 17 30 29 26 25 29 35 42 47 48 45 42 40 40 38 38 36 34 30 27 25 24 25 27 29 31 33
26 15 16 7 5 2 26 40 40 45 4 35 15 22 5 11 11 23 27 28 29 29 32 38 47 51 50 50 49 48 45 44 42 40 36 32 29 28 28 29 30 30 30 32
42 21 18 33 11 14 26 40 44 43 32 41 34 54 20 5 13 19 28 27 30 31 34 43 51 59 60 60 59 56 53 51 47 44 41 37 34 34 33 34 33 30 29 31
26 29 36 40 14 1 19 46 47 43 52 36 54 51 50 34 21 32 30 38 38 36 33 33 52 69 74 70 65 62 59 57 54 51 48 44 44 41 40 37 34 32 33 35
25 33 24 30 31 38 24 32 41 46 48 48 52 45 41 53 50 50 63 66 57 59 55 49 47 49 63 74 75 72 70 67 64 60 56 50 51 48 45 41 38 37 39 42
36 23 28 45 35 36 34 42 33 35 40 40 48 60 63 37 19 38 51 45 53 59 64 70 72 75 71 74 79 82 77 75 71 66 58 57 56 53 46 45 42 44 46 52
6 15 25 30 33 50 11 26 47 56 60 55 54 43 37 50 76 73 43 52 65 66 69 76 80 80 81 84 82 81 88 81 76 72 68 66 60 54 50 49 51 51 56 63
17 15 19 28 37 36 12 9 21 29 48 34 17 31 58 80 47 37 60 53 58 65 71 74 76 79 78 75 72 67 68 67 76 79 75 66 62 58 55 60 58 59 65 73
25 29 21 13 24 53 48 41 41 22 31 32 52 51 53 72 17 39 44 32 47 56 63 66 66 66 62 61 62 60 57 51 62 70 66 64 62 64 67 63 64 68 73 82
11 14 32 25 28 17 11 7 28 30 19 58 64 64 65 34 49 60 32 27 22 27 32 37 39 35 30 29 35 38 43 45 51 61 65 66 65 63 59 64 70 76 83 91
15 12 11 16 15 19 20 8 22 14 17 20 27 69 67 71 46 28 18 26 26 25 22 18 14 14 14 12 14 20 26 32 39 44 45 44 44 52 62 70 78 84 92 101
10 23 20 16 6 15 30 23 22 10 15 14 30 44 43 47 34 36 39 38 34 29 23 18 16 14 12 11 9 10 17 23 25 29 36 44 52 61 69 79 87 95 100 106
9 6 8 6 18 23 28 38 24 21 19 14 16 23 38 45 43 44 36 31 27 21 17 15 11 7 4 3 7 13 21 29 37 44 50 58 67 75 82 89 96 103 107 110
9 9 10 8 2 7 28 33 30 23 21 25 28 31 41 47 42 35 29 23 15 12 8 2 3 8 13 15 21 28 36 43 49 55 61 68 75 82 88 92 96 101 104 103
10 10 8 15 7 4 6 27 26 28 29 30 36 29 38 29 35 26 21 14 6 4 6 8 14 19 24 26 29 35 41 47 54 59 64 69 75 81 87 95 103 100 105 105
Wind_Direction_850mb
175 179 211 202 190 118 147 176 182 246 237 195 239 249 261 256 250 254 251 251 251 252 256 253 251 252 255 252 251 251 253 252 248 249 252 256 260 264 270 276 281 284 283 282
178 229 197 158 189 204 172 182 215 288 297 227 295 266 259 250 233 241 249 249 251 253 254 255 253 251 254 254 254 248 253 258 250 249 253 256 261 265 270 275 281 286 287 286
204 172 175 170 175 203 203 192 161 212 339 293 325 275 245 257 236 248 251 255 256 253 257 258 252 251 252 253 254 247 252 254 246 246 251 253 255 259 265 274 281 286 284 284
234 233 179 185 217 190 236 162 159 175 77 247 41 281 256 245 257 228 247 248 251 251 250 254 257 255 254 253 256 252 247 248 251 249 250 253 257 260 264 266 268 272 275 278
213 173 167 199 198 169 233 161 175 161 152 349 216 284 266 245 269 259 242 246 252 254 254 255 258 261 264 266 262 250 246 247 242 246 251 252 255 258 261 263 264 265 271 278
219 221 191 197 145 176 142 88 51 60 102 270 235 193 213 205 216 240 243 258 262 265 261 263 265 260 251 258 255 230 230 239 253 255 255 252 251 253 255 258 262 265 271 279
170 213 206 152 135 127 174 129 125 278 204 240 325 197 250 256 260 232 259 280 281 270 279 269 255 251 247 244 229 221 232 232 235 242 250 255 254 249 248 249 255 264 271 275
205 217 182 179 177 182 193 179 163 198 204 252 195 232 247 244 275 267 265 267 271 275 290 290 236 241 222 205 195 199 204 215 226 247 253 251 247 248 251 254 261 264 269 277
199 229 52 181 159 152 173 215 177 106 8 43 225 292 291 252 266 261 264 268 263 272 284 270 211 196 188 189 193 201 210 223 236 244 242 242 243 243 246 252 260 270 277 284
225 265 184 180 159 205 182 153 186 173 183 253 261 272 237 308 244 259 258 253 258 250 261 233 198 189 188 191 194 200 208 224 232 230 233 235 236 242 251 262 270 275 279 283
196 78 285 146 202 185 181 197 205 173 164 195 276 259 216 225 205 227 268 272 270 256 243 222 207 198 197 200 204 211 220 225 221 222 224 229 238 247 254 260 267 274 279 283
203 185 209 211 146 216 207 201 202 209 214 231 305 261 326 213 200 235 263 259 258 257 250 223 209 202 204 208 213 219 222 221 224 227 232 237 241 248 257 265 271 275 279 283
181 206 226 199 236 357 210 211 206 218 71 215 207 257 272 202 210 217 230 254 266 269 254 224 213 212 216 222 223 225 225 228 231 232 235 238 244 253 257 261 263 266 273 280
176 204 219 231 224 148 204 211 213 209 221 234 222 249 220 160 227 237 247 259 268 270 271 243 229 228 230 232 229 229 230 230 231 236 237 240 247 249 252 256 260 264 270 276
215 221 223 233 243 259 232 213 211 214 221 219 235 242 252 237 232 234 257 268 261 264 262 257 246 248 239 235 233 235 238 237 237 238 240 245 248 245 248 251 253 259 271 285
238 247 239 243 237 243 232 234 225 221 224 233 244 249 256 252 236 239 247 255 255 256 258 267 272 261 248 243 241 242 243 242 240 241 243 243 245 243 244 245 251 261 273 285
235 248 238 248 236 242 247 229 224 240 235 232 238 241 251 256 243 234 243 245 251 254 257 259 263 269 263 257 253 250 252 247 243 243 243 245 245 244 244 248 257 269 278 285
318 263 238 252 253 249 219 206 210 229 237 239 242 252 252 253 255 259 254 250 255 256 257 258 260 263 266 267 265 265 259 253 248 246 245 243 242 244 245 252 261 270 279 286
194 264 259 237 242 256 321 215 176 201 234 228 234 246 252 257 253 263 258 251 256 263 266 266 266 270 270 267 268 268 270 265 252 247 242 240 241 243 250 257 266 275 283 290
196 225 242 270 236 239 237 217 208 193 239 228 222 236 242 251 239 256 273 258 251 252 256 259 261 264 263 264 263 262 262 258 250 241 235 234 239 244 251 262 273 282 289 293
183 209 224 236 255 288 341 301 164 194 225 233 231 229 235 235 233 261 257 227 230 240 249 250 248 250 257 257 253 242 236 229 225 225 226 230 236 246 259 270 279 286 291 293
178 204 201 226 228 272 179 193 181 200 209 251 230 228 228 235 221 219 205 174 177 181 173 178 180 171 179 190 204 203 209 207 214 222 229 241 252 263 271 278 284 288 291 293
227 205 250 190 235 218 210 237 214 203 283 246 214 218 228 214 186 182 168 166 161 159 152 149 148 146 143 143 156 190 216 232 245 258 263 267 271 277 282 286 289 291 293 294
260 177 203 133 217 226 223 223 226 226 224 253 242 209 183 170 164 156 155 151 151 146 140 143 152 172 205 280 295 282 279 280 282 283 284 286 287 287 288 289 291 293 294 296
196 159 204 266 281 349 264 251 251 234 209 178 182 169 149 152 142 143 138 137 142 140 129 84 348 314 310 312 308 300 296 294 293 293 293 293 293 294 294 293 294 294 293 295
186 199 198 259 65 319 32 202 196 175 163 156 159 136 133 140 136 137 135 130 113 65 38 347 336 328 324 325 319 310 306 304 303 303 302 303 303 302 302 301 298 295 298 300